Location: �perlecques
(50.8057°N, 2.1521°E)
Time: 01:06:12
(UTC+00:00)

ITAMSAT 1 - Pass Details

Date: 08 April 2023
Orbit: 782 x 797 km, 98.8° (Epoch: 07 June)

Event Time Altitude Azimuth Distance (km) Brightness Sun altitude
Rises 20:06:37 0° 188° (S) 3,283 10.6 -14.2°
Reaches altitude 10° 20:09:07 10° 197° (SSW) 2,360 10.0 -14.5°
Maximum altitude 20:13:54 36° 263° (W) 1,245 9.2 -15.2°
Drops below altitude 10° 20:18:44 10° 330° (NNW) 2,380 11.2 -15.8°
Sets 20:21:16 0° 339° (NNW) 3,315 11.8 -16.1°
